Location: Unspecified
(0.0000°N, 0.0000°E)
Time: 02:09:05
(UTC+00:00)

Vanguard 2 - Pass Details

Date: 21 December 2018
Orbit: 553 x 2939 km, 32.9° (Epoch: 16 January)

Event Time Altitude Azimuth Distance (km) Brightness Sun altitude
Rises 01:21:56 0° 310° (NW) 4,385 - -58.9°
Reaches altitude 10° 01:24:25 10° 311° (NW) 3,670 - -58.5°
Maximum altitude 01:34:36 77° 37° (NE) 2,171 - -56.8°
Exits shadow 01:39:58 47° 112° (ESE) 2,962 10.4 -55.9°
Drops below altitude 10° 01:50:56 10° 122° (ESE) 5,597 12.3 -53.9°
Sets 01:55:40 0° 123° (ESE) 6,743 12.9 -53.0°
